STARLINK-30245 (57612 NORAD) Tracking and Keplerian Element Data

This shows tracking and keplerian element data for the satellite.

Feedback or suggestion? Click here.




ElementValue
Catalog57612
NameSTARLINK-30245
Epoch Orbit2477
Epoch Day13.16348688
Epoch Year2024
RAAN35.2216
Inclination43.0034
Eccentricity9.82E-05
Argument of Perigee248.4819
Mean Anonmoly111.5918
Mean Motion15.02519715
Decay Rate-3.674E-05
L11 57612U 23119L 24013.16348688 -.00003674 00000+0 -25714-3 0 9994
L22 57612 43.0034 35.2216 0000982 248.4819 111.5918 15.02519715 24773



Live tracking and technical data element details for STARLINK-30245 (NORAD 57612). STARLINK-30245 can be tracked NOW for your location showing map with azimuth and elevation plus other details from your city location.







IsCatalogInMostPopularTable: catalog: 57612, numindb: 27
Update: records affected: 1



GetName: 57612 STARLINK-30245

Hit Count: updated at: Thu, 22 Feb 2024 00:54:21 GMT